Location: El Hornillo
(40.2499°N, 5.1036°W)
Time: 16:40:11
(UTC+00:00)

Cosmos 1850 Rocket - Pass Details

Date: 05 August 2024
Orbit: 751 x 783 km, 74.0° (Epoch: 18 September)

Event Time Altitude Azimuth Distance (km) Brightness Sun altitude
Rises 21:53:24 0° 343° (NNW) 3,251 8.4 -22.9°
Reaches altitude 10° 21:55:47 10° 345° (NNW) 2,326 7.4 -23.2°
Maximum altitude 22:01:04 71° 70° (ENE) 822 4.0 -23.8°
Enters shadow 22:01:44 63° 118° (ESE) 866 3.9 -23.9°
